Terminal Aerodrome Forecast
Issued by NWS

Home | Current Version | Previous Version | Text Only | Print | Product List | Glossary On
Versions: 1 2 3 4 5 6 7 8 9 10 11 12 13 14 15 16
000
FTUS43 KDLH 210500
TAFBRD
TAF
KBRD 210537Z 2106/2206 VRB05KT P6SM FEW210
     FM210900 31011G18KT P6SM VCSH SCT040
     FM211400 33015G27KT P6SM SCT040=

USA.gov is the U.S. government's official web portal to all federal, state and local government web resources and services.